When you browse on this site, cookies collect data to enhance your experience and personalize the content and advertising you see.
Visit our Privacy Policy to learn more. By continuing to use the site, you agree to this use of cookies and data.
  • In Spain
  • List of Countries
  • For 7 days
  • Water Temperature
  • Weather Map
  • Weather Widgets
  • user-avatar
    Login

    Hourly Weather Biatris

    Today, 22 October, Tuesday

    Time Temperature Precipitation Wind Pressure Humidity
    00:00 +24°C° 0 mm 3 mps 651 mmHg 29%
    01:00 +24°C° 0 mm 3 mps 651 mmHg 32%
    02:00 +22°C° 0 mm 3 mps 651 mmHg 35%
    03:00 +22°C° 0 mm 3 mps 651 mmHg 38%
    04:00 +21°C° 0 mm 2 mps 650 mmHg 41%
    05:00 +20°C° 0 mm 2 mps 650 mmHg 44%
    06:00 +25°C° 0 mm 3 mps 652 mmHg 37%
    07:00 +28°C° 0 mm 3 mps 653 mmHg 31%
    08:00 +32°C° 0 mm 4 mps 654 mmHg 24%
    09:00 +35°C° 0 mm 4 mps 654 mmHg 20%
    10:00 +37°C° 0 mm 4 mps 655 mmHg 15%
    11:00 +40°C° 0 mm 4 mps 655 mmHg 11%
    12:00 +40°C° 0 mm 5 mps 654 mmHg 11%
    13:00 +40°C° 0 mm 5 mps 653 mmHg 12%
    14:00 +40°C° 0 mm 5 mps 653 mmHg 12%
    15:00 +38°C° 0 mm 6 mps 652 mmHg 14%
    16:00 +36°C° 0 mm 6 mps 652 mmHg 17%
    17:00 +35°C° 0 mm 6 mps 652 mmHg 19%
    18:00 +32°C° 0 mm 6 mps 652 mmHg 31%
    19:00 +29°C° 0 mm 6 mps 651 mmHg 43%
    20:00 +26°C° 0 mm 6 mps 651 mmHg 55%
    21:00 +24°C° 0 mm 6 mps 651 mmHg 61%
    22:00 +23°C° 0 mm 5 mps 651 mmHg 68%
    23:00 +21°C° 0 mm 5 mps 651 mmHg 75%

    Tomorrow, 23 October, Wednesday

    Time Temperature Precipitation Wind Pressure Humidity
    00:00 +21°C° 0 mm 4 mps 651 mmHg 78%
    01:00 +20°C° 0 mm 3 mps 651 mmHg 82%
    02:00 +19°C° 0 mm 2 mps 650 mmHg 85%
    03:00 +19°C° 0 mm 2 mps 650 mmHg 80%
    04:00 +19°C° 0 mm 3 mps 651 mmHg 75%
    05:00 +19°C° 0 mm 3 mps 651 mmHg 70%
    06:00 +22°C° 0 mm 4 mps 652 mmHg 58%
    07:00 +26°C° 0 mm 5 mps 653 mmHg 47%
    08:00 +28°C° 0 mm 6 mps 654 mmHg 36%
    09:00 +32°C° 0 mm 6 mps 654 mmHg 30%
    10:00 +34°C° 0 mm 5 mps 654 mmHg 24%
    11:00 +37°C° 0 mm 5 mps 654 mmHg 17%
    12:00 +38°C° 0 mm 4 mps 654 mmHg 16%
    13:00 +38°C° 0 mm 4 mps 653 mmHg 15%
    14:00 +39°C° 0 mm 3 mps 652 mmHg 13%
    15:00 +38°C° 0 mm 3 mps 652 mmHg 15%
    16:00 +37°C° 0 mm 3 mps 651 mmHg 16%
    17:00 +36°C° 0 mm 3 mps 651 mmHg 17%
    18:00 +34°C° 0 mm 3 mps 651 mmHg 20%
    19:00 +31°C° 0 mm 3 mps 651 mmHg 24%
    20:00 +28°C° 0 mm 4 mps 651 mmHg 28%
    21:00 +28°C° 0 mm 4 mps 651 mmHg 29%
    22:00 +27°C° 0 mm 4 mps 652 mmHg 31%
    23:00 +27°C° 0 mm 5 mps 652 mmHg 33%

    Day after tomorrow, 24 October, Thursday

    Time Temperature Precipitation Wind Pressure Humidity
    00:00 +26°C° 0 mm 4 mps 652 mmHg 35%
    01:00 +25°C° 0 mm 4 mps 651 mmHg 36%
    02:00 +25°C° 0 mm 3 mps 651 mmHg 38%
    03:00 +24°C° 0 mm 3 mps 652 mmHg 40%
    04:00 +24°C° 0 mm 3 mps 652 mmHg 41%
    05:00 +22°C° 0 mm 3 mps 652 mmHg 43%
    06:00 +26°C° 0 mm 4 mps 653 mmHg 40%
    07:00 +28°C° 0 mm 4 mps 654 mmHg 36%
    08:00 +32°C° 0 mm 4 mps 655 mmHg 32%
    09:00 +34°C° 0 mm 4 mps 655 mmHg 26%
    10:00 +37°C° 0 mm 4 mps 655 mmHg 19%
    11:00 +40°C° 0 mm 4 mps 656 mmHg 13%
    12:00 +41°C° 0 mm 4 mps 655 mmHg 12%
    13:00 +41°C° 0 mm 5 mps 654 mmHg 11%
    14:00 +42°C° 0 mm 5 mps 653 mmHg 11%
    15:00 +41°C° 0 mm 5 mps 653 mmHg 12%
    16:00 +40°C° 0 mm 4 mps 653 mmHg 13%
    17:00 +38°C° 0 mm 4 mps 652 mmHg 14%
    18:00 +36°C° 0 mm 4 mps 652 mmHg 17%
    19:00 +34°C° 0 mm 4 mps 653 mmHg 20%
    20:00 +32°C° 0 mm 4 mps 653 mmHg 23%
    21:00 +29°C° 0 mm 4 mps 653 mmHg 25%
    22:00 +28°C° 0 mm 3 mps 653 mmHg 28%
    23:00 +26°C° 0 mm 3 mps 652 mmHg 31%

    25 October, Friday

    Time Temperature Precipitation Wind Pressure Humidity
    00:00 +26°C° 0 mm 3 mps 652 mmHg 34%
    01:00 +25°C° 0 mm 3 mps 652 mmHg 36%
    02:00 +24°C° 0 mm 3 mps 652 mmHg 39%
    03:00 +24°C° 0 mm 3 mps 652 mmHg 41%
    04:00 +22°C° 0 mm 3 mps 652 mmHg 43%
    05:00 +22°C° 0 mm 3 mps 653 mmHg 46%
    06:00 +26°C° 0 mm 4 mps 653 mmHg 42%
    07:00 +28°C° 0 mm 4 mps 654 mmHg 37%
    08:00 +30°C° 0 mm 5 mps 655 mmHg 33%
    09:00 +33°C° 0 mm 5 mps 655 mmHg 28%
    10:00 +35°C° 0 mm 4 mps 655 mmHg 23%
    11:00 +37°C° 0 mm 3 mps 655 mmHg 17%
    12:00 +38°C° 0 mm 4 mps 655 mmHg 16%
    13:00 +40°C° 0 mm 4 mps 654 mmHg 14%
    14:00 +41°C° 0 mm 4 mps 654 mmHg 13%
    15:00 +40°C° 0 mm 4 mps 653 mmHg 14%
    16:00 +38°C° 0 mm 4 mps 653 mmHg 15%
    17:00 +37°C° 0 mm 5 mps 652 mmHg 16%
    18:00 +34°C° 0 mm 4 mps 652 mmHg 19%
    19:00 +30°C° 0 mm 4 mps 652 mmHg 23%
    20:00 +28°C° 0 mm 3 mps 652 mmHg 27%
    21:00 +27°C° 0 mm 3 mps 652 mmHg 28%
    22:00 +27°C° 0 mm 3 mps 652 mmHg 29%
    23:00 +26°C° 0 mm 3 mps 653 mmHg 31%

    26 October, Saturday

    Time Temperature Precipitation Wind Pressure Humidity
    00:00 +26°C° 0 mm 3 mps 652 mmHg 33%
    01:00 +25°C° 0 mm 3 mps 652 mmHg 36%
    02:00 +25°C° 0 mm 3 mps 652 mmHg 39%
    03:00 +24°C° 0 mm 3 mps 652 mmHg 40%
    04:00 +24°C° 0 mm 3 mps 652 mmHg 42%
    05:00 +24°C° 0 mm 3 mps 652 mmHg 43%
    06:00 +26°C° 0 mm 4 mps 653 mmHg 38%
    07:00 +28°C° 0 mm 4 mps 654 mmHg 34%
    08:00 +32°C° 0 mm 4 mps 654 mmHg 29%
    09:00 +34°C° 0 mm 4 mps 655 mmHg 25%
    10:00 +36°C° 0 mm 3 mps 655 mmHg 21%
    11:00 +38°C° 0 mm 3 mps 655 mmHg 17%
    12:00 +39°C° 0 mm 3 mps 654 mmHg 15%
    13:00 +40°C° 0 mm 3 mps 654 mmHg 13%
    14:00 +42°C° 0 mm 3 mps 653 mmHg 12%
    15:00 +40°C° 0 mm 3 mps 652 mmHg 13%
    16:00 +38°C° 0 mm 3 mps 652 mmHg 14%
    17:00 +37°C° 0 mm 3 mps 651 mmHg 15%
    18:00 +35°C° 0 mm 3 mps 651 mmHg 17%
    19:00 +33°C° 0 mm 3 mps 651 mmHg 20%
    20:00 +29°C° 0 mm 3 mps 651 mmHg 23%
    21:00 +28°C° 0 mm 3 mps 651 mmHg 25%
    22:00 +27°C° 0 mm 3 mps 651 mmHg 27%
    23:00 +26°C° 0 mm 3 mps 651 mmHg 28%

    27 October, Sunday

    Time Temperature Precipitation Wind Pressure Humidity
    00:00 +26°C° 0 mm 3 mps 651 mmHg 31%
    01:00 +25°C° 0 mm 3 mps 651 mmHg 33%
    02:00 +25°C° 0 mm 3 mps 650 mmHg 36%
    03:00 +25°C° 0 mm 3 mps 651 mmHg 36%
    04:00 +24°C° 0 mm 3 mps 651 mmHg 36%
    05:00 +23°C° 0 mm 4 mps 651 mmHg 37%
    06:00 +26°C° 0 mm 4 mps 652 mmHg 33%
    07:00 +29°C° 0 mm 5 mps 653 mmHg 30%
    08:00 +32°C° 0 mm 5 mps 654 mmHg 26%
    09:00 +34°C° 0 mm 5 mps 654 mmHg 23%
    10:00 +36°C° 0 mm 4 mps 654 mmHg 20%
    11:00 +38°C° 0 mm 3 mps 654 mmHg 17%
    12:00 +39°C° 0 mm 3 mps 653 mmHg 16%
    13:00 +39°C° 0 mm 3 mps 653 mmHg 15%
    14:00 +40°C° 0 mm 3 mps 652 mmHg 13%
    15:00 +39°C° 0 mm 3 mps 651 mmHg 14%
    16:00 +38°C° 0 mm 3 mps 651 mmHg 15%
    17:00 +37°C° 0 mm 3 mps 650 mmHg 16%
    18:00 +34°C° 0 mm 2 mps 650 mmHg 19%
    19:00 +31°C° 0 mm 2 mps 650 mmHg 22%
    20:00 +29°C° 0 mm 2 mps 650 mmHg 24%
    21:00 +27°C° 0 mm 2 mps 650 mmHg 26%
    22:00 +26°C° 0 mm 2 mps 650 mmHg 28%
    23:00 +25°C° 0 mm 2 mps 649 mmHg 30%

    28 October, Monday

    Time Temperature Precipitation Wind Pressure Humidity
    00:00 +24°C° 0 mm 2 mps 649 mmHg 30%
    01:00 +24°C° 0 mm 2 mps 649 mmHg 30%
    02:00 +23°C° 0 mm 2 mps 649 mmHg 31%
    03:00 +23°C° 0 mm 2 mps 649 mmHg 31%
    04:00 +23°C° 0 mm 2 mps 649 mmHg 32%
    05:00 +22°C° 0 mm 3 mps 649 mmHg 32%
    06:00 +26°C° 0 mm 3 mps 650 mmHg 28%
    07:00 +29°C° 0 mm 4 mps 651 mmHg 24%
    08:00 +33°C° 0 mm 5 mps 652 mmHg 21%
    09:00 +35°C° 0 mm 4 mps 652 mmHg 18%
    10:00 +38°C° 0 mm 3 mps 652 mmHg 16%
    11:00 +40°C° 0 mm 2 mps 653 mmHg 13%
    12:00 +41°C° 0 mm 2 mps 652 mmHg 13%
    13:00 +41°C° 0 mm 2 mps 651 mmHg 12%
    14:00 +41°C° 0 mm 2 mps 651 mmHg 11%
    15:00 +40°C° 0 mm 2 mps 650 mmHg 13%
    16:00 +39°C° 0 mm 2 mps 650 mmHg 14%
    17:00 +38°C° 0 mm 3 mps 649 mmHg 15%
    18:00 +35°C° 0 mm 2 mps 649 mmHg 19%
    19:00 +31°C° 0 mm 2 mps 649 mmHg 22%
    20:00 +29°C° 0 mm 2 mps 649 mmHg 25%
    21:00 +28°C° 0 mm 2 mps 649 mmHg 26%
    22:00 +27°C° 0 mm 2 mps 649 mmHg 26%
    23:00 +26°C° 0 mm 2 mps 649 mmHg 26%
    Show more